[[{"header":{"parameterUnit":"m.s-1","parameterCategory":2,"la1":30.2991,"la2":30.254,"lo1":-89.0895,"lo2":-89.0444,"dy":0.0017,"dx":0.0017,"nx":28,"ny":28,"refTime":"2024-04-24T21:00:00:Z","depth":"0","parameterNumber":2,"parameterNumberName":"U-component_of_CURRENTS"},"data":[0,0,0,0,0,0,0,0,0,0,0,0,0,0,0,0,0,0,0,0,0,0,0,0,0,0,0,0,0,0,0,0,0,0,0,0,0,0,0,0,0,0,0,0,0,0,0,0,0,0,0,0,0,0,0,0,0,0,-0.3101,-0.3101,0,-0.314,-0.3141,-0.3141,-0.3127,-0.3126,-0.3125,-0.3125,-0.3095,-0.3095,-0.3094,0,0,0,0,0,0,0,0,0,0,0,0,0,-0.3005,-0.3006,-0.31,-0.3101,-0.3102,-0.314,-0.3141,-0.3141,-0.3127,-0.3126,-0.3125,-0.3125,-0.3095,-0.3095,-0.3094,0,0,0,0,0,0,0,0,0,0,0,0,0,-0.3042,-0.3007,-0.31,-0.3102,-0.3103,-0.314,-0.3141,-0.3141,-0.3127,-0.3126,-0.3125,-0.3124,-0.3095,-0.3095,-0.3094,-0.311,0,0,-0.3093,-0.3093,0,0,0,0,0,0,0,0,-0.304,-0.3046,-0.3101,-0.3102,-0.3103,-0.3131,-0.3096,-0.3128,-0.3127,-0.3114,-0.3125,-0.3124,-0.3103,-0.3102,-0.3108,-0.3109,-0.3107,-0.3093,-0.3093,-0.3093,-0.3093,0,0,0,0,0,0,0,-0.3038,-0.3044,-0.3113,-0.3102,-0.3103,-0.3099,-0.3103,-0.3102,-0.3109,-0.3115,-0.3115,-0.3125,-0.3103,-0.3108,-0.3107,-0.3107,-0.3093,-0.3093,-0.3093,-0.3092,-0.3103,-0.3104,0,0,0,0,0,0,-0.3041,-0.3042,-0.3112,-0.3114,-0.3073,-0.3101,-0.3106,-0.312,-0.3111,-0.311,-0.3126,-0.3124,-0.3109,-0.3107,-0.3106,-0.312,-0.3093,-0.3092,-0.3092,-0.3103,-0.3103,-0.3104,0,0,0,0,0,0,-0.3039,-0.3047,-0.311,-0.3081,-0.3089,-0.3104,-0.312,-0.3121,-0.3125,-0.312,-0.3117,-0.3128,-0.3109,-0.3106,-0.3107,-0.3119,-0.3092,-0.3092,-0.3102,-0.3103,-0.3103,-0.3151,0,0,0,0,0,0,-0.3036,-0.3046,-0.3052,-0.3082,-0.3091,-0.3137,-0.3121,-0.3123,-0.3134,-0.3132,-0.3121,-0.3118,-0.3108,-0.3107,-0.3106,-0.3118,-0.3092,-0.3101,-0.3102,-0.3103,-0.3148,-0.3153,-0.3157,0,0,0,0,0,-0.3033,-0.3048,-0.3052,-0.306,-0.31,-0.3138,-0.3142,-0.3147,-0.3135,-0.3144,-0.3134,-0.3118,-0.3112,-0.3108,-0.3106,-0.3118,-0.3101,-0.3102,-0.3103,-0.3146,-0.3152,-0.3156,0,0,0,0,0,0,-0.3004,-0.3049,-0.3054,-0.308,-0.3109,-0.3137,-0.3143,-0.315,-0.3151,-0.3141,-0.3128,-0.3125,-0.3129,-0.3117,-0.3113,-0.3123,-0.3103,-0.3104,-0.3136,-0.3141,-0.3145,-0.3148,-0.3091,0,0,0,0,0,-0.3004,-0.3025,-0.3067,-0.3084,-0.3099,-0.312,-0.3133,-0.3143,-0.3152,-0.3151,-0.3146,-0.3136,-0.3135,-0.3132,-0.3129,-0.3137,-0.3121,-0.3142,-0.3146,-0.3149,-0.315,-0.3144,-0.3148,-0.3107,-0.3107,-0.3107,0,0,-0.2995,-0.3023,-0.3033,-0.3079,-0.3095,-0.3131,-0.3124,-0.3149,-0.3172,-0.3148,-0.3162,-0.3151,-0.3141,-0.315,-0.315,-0.314,-0.3152,-0.3151,-0.3154,-0.3153,-0.3145,-0.3149,-0.3153,-0.3108,-0.3108,-0.3108,0,0,-0.2999,-0.3015,-0.3039,-0.3071,-0.3109,-0.3129,-0.3139,-0.3172,-0.3177,-0.3199,-0.3183,-0.3181,-0.3181,-0.3178,-0.3176,-0.32,-0.3175,-0.3196,-0.322,-0.3214,-0.3218,-0.322,-0.3205,-0.3206,-0.3198,-0.3198,-0.3198,0,-0.2986,-0.3024,-0.305,-0.3088,-0.3112,-0.3132,-0.3166,-0.3185,-0.3212,-0.3219,-0.3206,-0.3209,-0.3197,-0.321,-0.3216,-0.321,-0.3198,-0.3204,-0.322,-0.3223,-0.3225,-0.3208,-0.3208,-0.3201,-0.32,-0.32,-0.32,0,-0.3014,-0.3047,-0.3063,-0.3117,-0.3149,-0.3177,-0.3219,-0.3239,-0.3243,-0.3259,-0.327,-0.3257,-0.3256,-0.3255,-0.3242,-0.3253,-0.3237,-0.3227,-0.3209,-0.3232,-0.3212,-0.3212,-0.3204,-0.3203,-0.3202,-0.3202,0,0,-0.2969,-0.3065,-0.3067,-0.31,-0.3165,-0.3193,-0.3237,-0.328,-0.3302,-0.3313,-0.3334,-0.3329,-0.3315,-0.331,-0.3294,-0.3288,-0.3289,-0.3264,-0.3263,-0.3251,-0.3269,-0.3181,-0.3172,-0.3283,-0.3283,-0.3283,-0.325,0,-0.2975,-0.3047,-0.3097,-0.3156,-0.3191,-0.3237,-0.3279,-0.332,-0.3341,-0.3366,-0.3356,-0.3365,-0.3339,-0.3333,-0.3327,-0.3302,-0.329,-0.3298,-0.3246,-0.3245,-0.3166,-0.3169,-0.3049,-0.3002,-0.3249,-0.3249,-0.3249,0,-0.2975,-0.3025,-0.3087,-0.3178,-0.3197,-0.3233,-0.3292,-0.3336,-0.3383,-0.34,-0.341,-0.3407,-0.3404,-0.3374,-0.3343,-0.3349,-0.331,-0.3286,-0.3284,-0.3184,-0.3156,-0.3019,-0.2991,-0.298,-0.3248,-0.3248,-0.3248,0,-0.291,-0.3011,-0.3055,-0.3087,-0.3195,-0.3218,-0.3262,-0.3325,-0.3363,-0.3408,-0.343,-0.3437,-0.3426,-0.3397,-0.3341,-0.3346,-0.3296,-0.3297,-0.3181,-0.3175,-0.3051,-0.3032,-0.3005,-0.3267,-0.3267,-0.3267,-0.3267,0,-0.2887,-0.2918,-0.3024,-0.3046,-0.3094,-0.3177,-0.3221,-0.3275,-0.3343,-0.3377,-0.3425,-0.3436,-0.343,-0.3403,-0.3356,-0.3256,-0.3304,-0.3179,-0.3158,-0.3063,-0.3046,-0.3013,-0.3045,-0.3266,-0.3266,-0.3266,-0.3266,0,-0.2799,-0.2877,-0.2928,-0.3032,-0.3063,-0.3084,-0.3187,-0.3219,-0.3301,-0.3344,-0.3358,-0.3427,-0.3392,-0.3368,-0.3315,-0.3256,-0.3128,-0.3134,-0.3015,-0.298,-0.2857,-0.2895,-0.2829,-0.2747,-0.301,-0.3007,-0.3005,0,-0.276,-0.2777,-0.2883,-0.2907,-0.2945,-0.3001,-0.3042,-0.3163,-0.3205,-0.332,-0.3328,-0.3343,-0.3318,-0.3225,-0.3128,-0.3025,-0.3021,-0.2861,-0.2843,-0.2825,-0.2854,-0.2875,-0.2813,-0.2703,-0.2699,-0.2695,-0.2692,0,-0.2661,-0.2695,-0.2734,-0.279,-0.2832,-0.2891,-0.2957,-0.2996,-0.3129,-0.3181,-0.3222,-0.3218,-0.3154,-0.3015,-0.29,-0.2812,-0.2798,-0.2783,-0.2797,-0.2633,-0.2622,-0.254,-0.276,-0.2661,-0.2664,-0.2666,-0.2668,-0.2669,-0.2555,-0.2557,-0.2607,-0.2643,-0.2699,-0.2732,-0.2719,-0.2819,-0.2869,-0.2898,-0.3013,-0.296,-0.292,-0.2741,-0.2667,-0.2504,-0.2559,-0.2426,-0.2481,-0.251,-0.2406,-0.2548,-0.2406,-0.2408,-0.2409,-0.241,-0.2411,0,-0.2407,-0.2429,-0.2458,-0.2491,-0.2475,-0.2563,-0.2622,-0.2578,-0.2572,-0.2655,-0.2654,-0.2629,-0.2516,-0.249,-0.237,-0.2255,-0.2194,-0.2191,-0.2209,-0.2162,-0.2302,-0.2262,-0.2042,-0.2042,-0.2042,-0.2042,-0.2042,-0.2042,-0.2327,-0.2297,-0.2319,-0.2242,-0.2259,-0.2184,-0.2172,-0.2146,-0.2168,-0.2119,-0.2138,-0.2182,-0.2236,-0.2423,-0.2299,-0.2173,-0.2126,-0.2039,-0.2076,-0.2212,-0.2239,-0.2265,-0.2234,-0.2011,-0.2012,-0.1842,-0.1841,-0.184]},{"header":{"parameterUnit":"m.s-1","parameterCategory":2,"la1":30.2991,"la2":30.254,"lo1":-89.0895,"lo2":-89.0444,"dy":0.0017,"dx":0.0017,"nx":28,"ny":28,"refTime":"2024-04-24T21:00:00:Z","depth":"0","parameterNumber":3,"parameterNumberName":"V-component_of_CURRENTS"},"data":[0,0,0,0,0,0,0,0,0,0,0,0,0,0,0,0,0,0,0,0,0,0,0,0,0,0,0,0,0,0,0,0,0,0,0,0,0,0,0,0,0,0,0,0,0,0,0,0,0,0,0,0,0,0,0,0,0,0,-0.0252,-0.0251,0,-0.014,-0.0138,-0.0137,-0.0063,-0.0062,-0.0062,-0.0062,0.0085,0.0089,0.0092,0,0,0,0,0,0,0,0,0,0,0,0,0,-0.032,-0.0319,-0.0252,-0.0251,-0.025,-0.014,-0.0138,-0.0137,-0.0063,-0.0062,-0.0062,-0.0061,0.0084,0.0088,0.0093,0,0,0,0,0,0,0,0,0,0,0,0,0,-0.0256,-0.0319,-0.0252,-0.0201,-0.0195,-0.014,-0.0138,-0.0136,-0.0063,-0.0062,-0.0062,-0.0061,0.0083,0.0088,0.0093,0.0116,0,0,0.011,0.0112,0,0,0,0,0,0,0,0,-0.026,-0.0253,-0.021,-0.0204,-0.0198,-0.0116,-0.0108,-0.0051,-0.0063,-0.0111,-0.0062,-0.0061,0.002,0.003,0.0052,0.0123,0.0129,0.011,0.0113,0.0116,0.0117,0,0,0,0,0,0,0,-0.0264,-0.0257,-0.0206,-0.0208,-0.0201,-0.0155,-0.0146,-0.0097,-0.0048,-0.0107,-0.0102,-0.0092,0.0023,0.0047,0.0056,0.0132,0.011,0.0115,0.0118,0.012,0.0248,0.0249,0,0,0,0,0,0,-0.0286,-0.0262,-0.0209,-0.0203,-0.023,-0.0155,-0.0144,-0.0142,-0.0049,-0.0035,-0.0093,-0.0089,0.0037,0.005,0.0062,0.0098,0.0116,0.0121,0.0124,0.0248,0.0248,0.0249,0,0,0,0,0,0,-0.0288,-0.0283,-0.0214,-0.023,-0.0219,-0.0155,-0.0152,-0.014,-0.0116,-0.0039,-0.0024,-0.0082,0.0038,0.0054,0.0105,0.0104,0.0123,0.0128,0.0248,0.0248,0.0248,0.0167,0,0,0,0,0,0,-0.0291,-0.0285,-0.0292,-0.0233,-0.0219,-0.0193,-0.0152,-0.0138,-0.0112,-0.0106,-0.0025,-0.0011,0.004,0.0097,0.0111,0.0111,0.0132,0.0248,0.0248,0.0248,0.017,0.0165,0.0161,0,0,0,0,0,-0.0294,-0.0311,-0.0294,-0.0287,-0.0231,-0.0193,-0.0182,-0.0133,-0.0113,-0.0109,-0.0049,-0.0014,0.0109,0.0101,0.0118,0.012,0.0248,0.0248,0.0248,0.0172,0.0166,0.0161,0,0,0,0,0,0,-0.0344,-0.0303,-0.0283,-0.0286,-0.0248,-0.0182,-0.0176,-0.0141,-0.0091,-0.0085,-0.001,0.0008,0.005,0.0098,0.0087,0.0159,0.0184,0.0187,0.012,0.0115,0.0111,0.0091,0.0137,0,0,0,0,0,-0.036,-0.0362,-0.031,-0.0313,-0.0299,-0.0239,-0.0219,-0.0185,-0.0133,-0.011,-0.0052,0.0011,0.0065,0.0098,0.0149,0.0189,0.0246,0.0202,0.0198,0.0193,0.019,0.027,0.0272,0.025,0.025,0.025,0,0,-0.038,-0.0358,-0.0359,-0.0324,-0.0291,-0.0279,-0.0225,-0.0203,-0.0186,-0.0102,-0.0066,-0.0007,0.007,0.0114,0.0138,0.0155,0.0231,0.0194,0.0189,0.0188,0.0271,0.0273,0.0275,0.025,0.025,0.025,0,0,-0.0426,-0.0403,-0.0421,-0.0396,-0.0357,-0.0315,-0.0314,-0.0252,-0.0219,-0.0177,-0.0112,-0.0053,0.0024,0.0087,0.0127,0.0129,0.0197,0.0142,0.0111,0.0189,0.0191,0.0194,0.027,0.028,0.0146,0.0146,0.0146,0,-0.0454,-0.0467,-0.042,-0.0428,-0.0413,-0.0338,-0.0347,-0.0302,-0.023,-0.02,-0.018,-0.0048,0.0013,0.0085,0.0085,0.0118,0.0171,0.0122,0.0182,0.0185,0.019,0.0267,0.0279,0.0142,0.0143,0.0143,0.0143,0,-0.0509,-0.0518,-0.0526,-0.0511,-0.0485,-0.0482,-0.0415,-0.0384,-0.0334,-0.0278,-0.0205,-0.0113,-0.0031,-0.0003,0.0042,0.0104,0.0135,0.0159,0.019,0.0187,0.0269,0.0283,0.0137,0.0138,0.0139,0.014,0,0,-0.0574,-0.0569,-0.0572,-0.0581,-0.053,-0.0516,-0.0485,-0.043,-0.0404,-0.0323,-0.0277,-0.0176,-0.0116,-0.0066,0.0008,0.0078,0.0154,0.0122,0.0128,0.0188,0.0327,0.0388,0.041,0.0186,0.0188,0.0189,0.0373,0,-0.0633,-0.0682,-0.0646,-0.0671,-0.0689,-0.061,-0.0585,-0.052,-0.0448,-0.0383,-0.0268,-0.0199,-0.014,-0.0099,-0.002,0.0114,0.0187,0.0102,0.033,0.0337,0.0384,0.0427,0.0478,0.065,0.0387,0.039,0.0391,0,-0.0696,-0.0722,-0.077,-0.0759,-0.0755,-0.0747,-0.0686,-0.0653,-0.0535,-0.0477,-0.0378,-0.028,-0.0153,-0.0113,0.0114,0.0057,0.0177,0.0279,0.0289,0.0383,0.0425,0.0613,0.0686,0.0893,0.0414,0.0412,0.0411,0,-0.0776,-0.08,-0.0844,-0.0843,-0.0817,-0.0811,-0.0782,-0.0686,-0.0651,-0.0531,-0.0485,-0.032,-0.0225,-0.0059,0.016,0.0139,0.0411,0.0414,0.0584,0.059,0.0699,0.0711,0.0992,0.0562,0.0562,0.0561,0.0561,0,-0.0854,-0.0886,-0.089,-0.0916,-0.0952,-0.0895,-0.0893,-0.0835,-0.0741,-0.0687,-0.0543,-0.0451,-0.0208,-0.0017,0.0158,0.0432,0.042,0.0594,0.0648,0.0673,0.068,0.0916,0.0982,0.0568,0.0567,0.0565,0.0564,0,-0.0936,-0.094,-0.0993,-0.0995,-0.0996,-0.1021,-0.0983,-0.097,-0.0872,-0.0794,-0.0757,-0.0528,-0.0264,-0.0013,0.0292,0.0444,0.0819,0.0775,0.0788,0.0841,0.1169,0.1227,0.1528,0.1645,0.0992,0.0995,0.0997,0,-0.0984,-0.1024,-0.1066,-0.1104,-0.111,-0.1132,-0.1138,-0.1052,-0.1018,-0.0827,-0.0786,-0.0518,-0.0287,0.0184,0.0504,0.0847,0.0969,0.1064,0.1031,0.1218,0.1324,0.1342,0.1419,0.115,0.1154,0.1156,0.1159,0,-0.107,-0.1081,-0.1127,-0.1215,-0.1247,-0.1276,-0.1265,-0.125,-0.1117,-0.1008,-0.0786,-0.0578,-0.0096,0.0355,0.0785,0.0969,0.1218,0.1129,0.1338,0.1488,0.1516,0.1643,0.0991,0.1183,0.1181,0.1179,0.1177,0.1176,-0.1119,-0.118,-0.1242,-0.1316,-0.1364,-0.1392,-0.139,-0.1315,-0.1223,-0.0981,-0.0793,-0.0396,0.0219,0.0859,0.1088,0.155,0.146,0.166,0.1721,0.1728,0.183,0.1225,0.1461,0.146,0.146,0.1459,0.1458,0,-0.1183,-0.1246,-0.1333,-0.1416,-0.1477,-0.1471,-0.1447,-0.1371,-0.122,-0.0924,-0.0646,0.0093,0.0706,0.1254,0.189,0.213,0.2169,0.223,0.2286,0.234,0.1842,0.1838,0.215,0.2149,0.2149,0.2149,0.2149,0.2148,-0.1217,-0.132,-0.1368,-0.1487,-0.1535,-0.1555,-0.1525,-0.1335,-0.1097,-0.0572,-0.0105,0.0254,0.0999,0.2036,0.2636,0.2671,0.288,0.2839,0.2954,0.2623,0.2574,0.2527,0.2544,0.2999,0.3,0.3434,0.3439,0.3442]}],[{"header":{"parameterUnit":"m.s-1","parameterCategory":2,"la1":30.2991,"la2":30.254,"lo1":-89.0895,"lo2":-89.0444,"dy":0.0017,"dx":0.0017,"nx":28,"ny":28,"refTime":"2024-04-24T21:00:00:Z","depth":"2","parameterNumber":2,"parameterNumberName":"U-component_of_CURRENTS"},"data":[0,0,0,0,0,0,0,0,0,0,0,0,0,0,0,0,0,0,0,0,0,0,0,0,0,0,0,0,0,0,0,0,0,0,0,0,0,0,0,0,0,0,0,0,0,0,0,0,0,0,0,0,0,0,0,0,0,0,-0.2963,-0.2963,0,-0.3003,-0.3003,-0.3003,-0.2994,-0.2993,-0.2993,-0.2992,-0.2968,-0.2968,-0.2968,0,0,0,0,0,0,0,0,0,0,0,0,0,-0.2868,-0.287,-0.2963,-0.2963,-0.2964,-0.3003,-0.3003,-0.3003,-0.2994,-0.2993,-0.2993,-0.2992,-0.2968,-0.2968,-0.2968,0,0,0,0,0,0,0,0,0,0,0,0,0,-0.2906,-0.287,-0.2963,-0.2967,-0.2968,-0.3003,-0.3003,-0.3003,-0.2994,-0.2993,-0.2992,-0.2992,-0.2968,-0.2968,-0.2968,-0.298,0,0,-0.2967,-0.2967,0,0,0,0,0,0,0,0,-0.2904,-0.2909,-0.2965,-0.2966,-0.2968,-0.2995,-0.2961,-0.2993,-0.2994,-0.298,-0.2992,-0.2992,-0.2974,-0.2973,-0.2979,-0.2979,-0.2978,-0.2967,-0.2967,-0.2967,-0.2967,0,0,0,0,0,0,0,-0.2901,-0.2907,-0.2975,-0.2966,-0.2968,-0.2963,-0.2968,-0.2967,-0.2977,-0.2982,-0.2982,-0.2992,-0.2974,-0.2979,-0.2978,-0.2977,-0.2967,-0.2967,-0.2966,-0.2966,-0.298,-0.298,0,0,0,0,0,0,-0.2904,-0.2905,-0.2974,-0.2977,-0.2937,-0.2966,-0.297,-0.2984,-0.2978,-0.2978,-0.2992,-0.2991,-0.298,-0.2978,-0.2977,-0.2995,-0.2967,-0.2966,-0.2966,-0.2979,-0.298,-0.298,0,0,0,0,0,0,-0.2902,-0.291,-0.2972,-0.2944,-0.2952,-0.2969,-0.2984,-0.2986,-0.2992,-0.2988,-0.2986,-0.2997,-0.2979,-0.2977,-0.298,-0.2994,-0.2966,-0.2966,-0.2978,-0.2979,-0.298,-0.3028,0,0,0,0,0,0,-0.2899,-0.2909,-0.2916,-0.2944,-0.2954,-0.2999,-0.2985,-0.2987,-0.3001,-0.2999,-0.2991,-0.2988,-0.2979,-0.2981,-0.298,-0.2993,-0.2966,-0.2978,-0.2979,-0.298,-0.3026,-0.3031,-0.3034,0,0,0,0,0,-0.2896,-0.2911,-0.2916,-0.2925,-0.2964,-0.3,-0.3004,-0.3011,-0.3002,-0.3012,-0.3003,-0.2989,-0.2986,-0.2981,-0.298,-0.2993,-0.2977,-0.2979,-0.298,-0.3024,-0.303,-0.3034,0,0,0,0,0,0,-0.287,-0.2913,-0.2919,-0.2945,-0.2973,-0.3,-0.3007,-0.3015,-0.3018,-0.301,-0.2999,-0.2996,-0.3003,-0.2992,-0.2986,-0.2999,-0.2978,-0.2979,-0.3012,-0.3018,-0.3022,-0.3025,-0.2965,0,0,0,0,0,-0.287,-0.2891,-0.2932,-0.2949,-0.2964,-0.2986,-0.2999,-0.3009,-0.302,-0.302,-0.3017,-0.3009,-0.3009,-0.3007,-0.3004,-0.3014,-0.2998,-0.302,-0.3024,-0.3028,-0.3029,-0.3022,-0.3026,-0.2984,-0.2984,-0.2984,0,0,-0.2863,-0.2889,-0.29,-0.2945,-0.2961,-0.2996,-0.2991,-0.3016,-0.304,-0.3017,-0.3034,-0.3025,-0.3014,-0.3025,-0.3027,-0.3016,-0.3031,-0.3029,-0.3033,-0.3031,-0.3023,-0.3027,-0.3031,-0.2985,-0.2985,-0.2985,0,0,-0.2867,-0.2885,-0.2908,-0.2939,-0.2978,-0.2997,-0.3008,-0.3041,-0.3048,-0.3071,-0.3056,-0.3056,-0.3059,-0.3056,-0.3054,-0.3079,-0.3054,-0.3076,-0.3101,-0.3095,-0.3098,-0.3101,-0.3085,-0.3086,-0.3078,-0.3078,-0.3078,0,-0.2856,-0.2894,-0.2919,-0.2956,-0.2981,-0.3001,-0.3035,-0.3054,-0.3083,-0.3091,-0.308,-0.3085,-0.3074,-0.3088,-0.3096,-0.309,-0.3077,-0.3084,-0.3101,-0.3103,-0.3105,-0.3088,-0.3089,-0.3081,-0.3081,-0.308,-0.308,0,-0.2884,-0.2917,-0.2933,-0.2987,-0.3018,-0.3047,-0.3088,-0.3109,-0.3116,-0.3133,-0.3147,-0.3135,-0.3136,-0.3135,-0.3123,-0.3135,-0.3118,-0.3108,-0.3089,-0.3113,-0.3093,-0.3093,-0.3084,-0.3084,-0.3083,-0.3082,0,0,-0.2843,-0.2936,-0.2938,-0.2971,-0.3035,-0.3063,-0.3107,-0.3151,-0.3175,-0.3188,-0.321,-0.3208,-0.3196,-0.3191,-0.3176,-0.317,-0.3172,-0.3147,-0.3145,-0.3133,-0.3151,-0.3064,-0.3055,-0.3165,-0.3166,-0.3166,-0.3132,0,-0.2851,-0.292,-0.2968,-0.3027,-0.3062,-0.3108,-0.315,-0.3192,-0.3214,-0.3241,-0.3233,-0.3243,-0.322,-0.3216,-0.321,-0.3184,-0.3173,-0.3181,-0.3128,-0.3126,-0.3048,-0.3053,-0.2817,-0.276,-0.3131,-0.3131,-0.3131,0,-0.2852,-0.2901,-0.2962,-0.305,-0.3069,-0.3105,-0.3166,-0.321,-0.3258,-0.3276,-0.3288,-0.3287,-0.3286,-0.3257,-0.3226,-0.3233,-0.3194,-0.3169,-0.3167,-0.3068,-0.3039,-0.2796,-0.2745,-0.313,-0.313,-0.313,-0.313,0,-0.2791,-0.289,-0.2934,-0.2965,-0.3069,-0.3094,-0.3138,-0.3202,-0.3239,-0.3286,-0.3309,-0.3317,-0.3308,-0.3279,-0.3225,-0.3229,-0.3179,-0.3179,-0.3064,-0.3058,-0.2836,-0.2809,-0.3149,-0.3149,-0.3149,-0.3149,-0.3149,0,-0.2771,-0.2803,-0.2906,-0.2928,-0.2976,-0.3057,-0.3102,-0.3156,-0.3224,-0.3257,-0.3306,-0.3316,-0.3312,-0.3286,-0.3239,-0.314,-0.3187,-0.3063,-0.3041,-0.2846,-0.2821,-0.3126,-0.3123,-0.3148,-0.3148,-0.3148,-0.3149,0,-0.2689,-0.2765,-0.2816,-0.2917,-0.2948,-0.297,-0.3071,-0.3103,-0.3184,-0.3226,-0.3241,-0.3307,-0.3272,-0.325,-0.3197,-0.3139,-0.3068,-0.3018,-0.2785,-0.2736,-0.2951,-0.2952,-0.29,-0.2897,-0.2894,-0.2891,-0.2889,0,-0.2653,-0.2671,-0.2774,-0.2797,-0.2836,-0.2892,-0.2932,-0.305,-0.3089,-0.3201,-0.3207,-0.3222,-0.3193,-0.31,-0.2989,-0.2885,-0.2975,-0.2626,-0.2593,-0.2941,-0.2925,-0.2931,-0.2935,-0.2317,-0.2311,-0.2306,-0.2301,0,-0.256,-0.2594,-0.2632,-0.2686,-0.2727,-0.2784,-0.2847,-0.2883,-0.3012,-0.3059,-0.3094,-0.3085,-0.3008,-0.2796,-0.2678,-0.2586,-0.263,-0.2516,-0.2919,-0.2427,-0.2391,-0.2377,-0.24,-0.2254,-0.2258,-0.2262,-0.2264,-0.2266,-0.246,-0.2462,-0.251,-0.2545,-0.2599,-0.2627,-0.261,-0.2697,-0.2738,-0.2736,-0.2856,-0.2739,-0.2711,-0.2393,-0.2276,-0.2164,-0.2338,-0.2229,-0.2245,-0.2267,-0.2215,-0.2177,-0.199,-0.1993,-0.1996,-0.1998,-0.2,0,-0.2317,-0.2339,-0.2367,-0.2396,-0.2374,-0.2464,-0.2513,-0.2443,-0.2415,-0.2443,-0.2415,-0.2129,-0.2016,-0.1987,-0.1749,-0.1723,-0.1701,-0.1651,-0.1622,-0.1669,-0.1711,-0.1632,-0.1251,-0.1249,-0.1248,-0.1246,0,0,-0.224,-0.2207,-0.2226,-0.2144,-0.2162,-0.207,-0.2053,-0.1982,-0.1947,-0.1792,-0.1714,-0.1842,-0.1903,-0.1567,-0.1503,-0.1341,-0.1485,-0.1267,-0.186,-0.187,-0.1909,-0.2029,-0.1959,0,0,0,0,0]},{"header":{"parameterUnit":"m.s-1","parameterCategory":2,"la1":30.2991,"la2":30.254,"lo1":-89.0895,"lo2":-89.0444,"dy":0.0017,"dx":0.0017,"nx":28,"ny":28,"refTime":"2024-04-24T21:00:00:Z","depth":"2","parameterNumber":3,"parameterNumberName":"V-component_of_CURRENTS"},"data":[0,0,0,0,0,0,0,0,0,0,0,0,0,0,0,0,0,0,0,0,0,0,0,0,0,0,0,0,0,0,0,0,0,0,0,0,0,0,0,0,0,0,0,0,0,0,0,0,0,0,0,0,0,0,0,0,0,0,-0.0308,-0.0307,0,-0.0199,-0.0198,-0.0197,-0.0124,-0.0123,-0.0123,-0.0123,0.002,0.0023,0.0027,0,0,0,0,0,0,0,0,0,0,0,0,0,-0.0374,-0.0374,-0.0308,-0.0307,-0.0305,-0.02,-0.0198,-0.0196,-0.0124,-0.0123,-0.0123,-0.0123,0.0019,0.0023,0.0027,0,0,0,0,0,0,0,0,0,0,0,0,0,-0.0312,-0.0374,-0.0308,-0.0258,-0.0252,-0.02,-0.0198,-0.0196,-0.0124,-0.0123,-0.0123,-0.0122,0.0017,0.0022,0.0028,0.0049,0,0,0.0043,0.0046,0,0,0,0,0,0,0,0,-0.0316,-0.031,-0.0266,-0.0261,-0.0255,-0.0176,-0.0169,-0.0113,-0.0124,-0.0171,-0.0123,-0.0122,-0.0044,-0.0034,-0.0013,0.0056,0.0062,0.0044,0.0047,0.0049,0.0051,0,0,0,0,0,0,0,-0.0321,-0.0314,-0.0263,-0.0265,-0.0258,-0.0214,-0.0205,-0.0158,-0.011,-0.0167,-0.0162,-0.0152,-0.004,-0.0018,-0.0009,0.0064,0.0044,0.0048,0.0052,0.0054,0.0178,0.0178,0,0,0,0,0,0,-0.0342,-0.0318,-0.0267,-0.026,-0.0287,-0.0214,-0.0204,-0.02,-0.0111,-0.0097,-0.0153,-0.0149,-0.0027,-0.0015,-0.0003,0.0035,0.0049,0.0054,0.0057,0.0178,0.0178,0.0178,0,0,0,0,0,0,-0.0344,-0.0339,-0.0271,-0.0287,-0.0276,-0.0214,-0.021,-0.0199,-0.0176,-0.0101,-0.0086,-0.0143,-0.0026,-0.0011,0.0039,0.0041,0.0057,0.0061,0.0178,0.0178,0.0178,0.0106,0,0,0,0,0,0,-0.0346,-0.034,-0.0347,-0.0289,-0.0276,-0.025,-0.0211,-0.0197,-0.0172,-0.0166,-0.0087,-0.0073,-0.0024,0.0031,0.0045,0.0048,0.0065,0.0177,0.0178,0.0178,0.0108,0.0104,0.01,0,0,0,0,0,-0.0349,-0.0365,-0.0348,-0.0342,-0.0287,-0.0251,-0.024,-0.0192,-0.0172,-0.0168,-0.011,-0.0076,0.0043,0.0036,0.0051,0.0056,0.0177,0.0178,0.0178,0.011,0.0105,0.0101,0,0,0,0,0,0,-0.0397,-0.0357,-0.0338,-0.0341,-0.0303,-0.0239,-0.0234,-0.0199,-0.015,-0.0145,-0.0072,-0.0055,-0.0013,0.0032,0.0022,0.0094,0.0116,0.0119,0.0059,0.0054,0.005,0.0033,0.007,0,0,0,0,0,-0.0413,-0.0414,-0.0364,-0.0366,-0.0353,-0.0294,-0.0274,-0.0242,-0.0191,-0.0169,-0.0112,-0.0051,0.0001,0.0034,0.0083,0.0124,0.0176,0.0138,0.0134,0.013,0.0127,0.0205,0.0207,0.018,0.018,0.018,0,0,-0.0431,-0.041,-0.041,-0.0377,-0.0344,-0.0332,-0.0281,-0.0258,-0.024,-0.0161,-0.0123,-0.0068,0.0007,0.0051,0.0075,0.009,0.0166,0.0131,0.0127,0.0126,0.0205,0.0208,0.021,0.018,0.018,0.018,0,0,-0.0474,-0.0452,-0.0469,-0.0444,-0.0406,-0.0365,-0.0364,-0.0304,-0.0271,-0.0229,-0.0167,-0.0109,-0.0034,0.0028,0.0068,0.0073,0.0135,0.0084,0.0059,0.0134,0.0136,0.014,0.0207,0.0217,0.0089,0.0089,0.0089,0,-0.0501,-0.0512,-0.0467,-0.0474,-0.0458,-0.0387,-0.0394,-0.0349,-0.0279,-0.0249,-0.0231,-0.0102,-0.0042,0.0031,0.0033,0.0064,0.0112,0.0068,0.0128,0.0132,0.0136,0.0205,0.0217,0.0086,0.0086,0.0087,0.0087,0,-0.0551,-0.0558,-0.0565,-0.0548,-0.0523,-0.0519,-0.0454,-0.0423,-0.0375,-0.032,-0.0247,-0.0157,-0.0078,-0.0049,-0.0006,0.0058,0.0083,0.0106,0.0135,0.0134,0.0208,0.0221,0.0081,0.0082,0.0083,0.0084,0,0,-0.0613,-0.0605,-0.0607,-0.0615,-0.0564,-0.055,-0.0517,-0.0462,-0.0436,-0.0357,-0.031,-0.0209,-0.0152,-0.0103,-0.0032,0.0037,0.0111,0.0077,0.0082,0.0135,0.0273,0.0325,0.0346,0.0141,0.0143,0.0145,0.031,0,-0.0667,-0.0711,-0.0675,-0.0696,-0.0712,-0.0635,-0.0608,-0.0545,-0.0475,-0.0412,-0.0298,-0.0231,-0.0173,-0.0133,-0.0055,0.0072,0.0143,0.0063,0.0273,0.0279,0.032,0.0362,0.0281,0.0424,0.0324,0.0326,0.0328,0,-0.0725,-0.0748,-0.0791,-0.0778,-0.0774,-0.0765,-0.0704,-0.0671,-0.0556,-0.05,-0.0403,-0.0309,-0.0183,-0.0145,0.0074,0.0019,0.0133,0.0229,0.0238,0.0322,0.0358,0.0412,0.0453,0.0351,0.0349,0.0347,0.0346,0,-0.0802,-0.0822,-0.0862,-0.0859,-0.0832,-0.0825,-0.0796,-0.0703,-0.0669,-0.0552,-0.0509,-0.0347,-0.0257,-0.0097,0.0112,0.0093,0.0349,0.0354,0.0511,0.0516,0.0507,0.0508,0.0498,0.0498,0.0497,0.0497,0.0496,0,-0.0876,-0.0905,-0.0907,-0.0931,-0.0964,-0.0907,-0.0905,-0.0848,-0.0758,-0.0709,-0.0564,-0.0479,-0.0243,-0.0062,0.0107,0.0365,0.0356,0.052,0.057,0.048,0.0477,0.0457,0.045,0.0503,0.0502,0.05,0.0499,0,-0.0956,-0.0957,-0.1007,-0.1006,-0.1008,-0.1032,-0.0995,-0.0984,-0.0888,-0.0817,-0.0781,-0.0561,-0.0311,-0.0068,0.0223,0.0369,0.0598,0.0683,0.0563,0.0596,0.0711,0.0698,0.0876,0.088,0.0883,0.0885,0.0887,0,-0.1002,-0.1039,-0.1079,-0.1116,-0.1122,-0.1143,-0.1149,-0.1066,-0.1035,-0.0855,-0.0818,-0.0565,-0.035,0.0098,0.0385,0.0708,0.0697,0.0809,0.0767,0.0723,0.0754,0.0736,0.072,0.0725,0.0726,0.0726,0.0726,0,-0.1086,-0.1096,-0.1141,-0.1227,-0.1259,-0.1288,-0.1278,-0.1267,-0.1141,-0.1039,-0.0835,-0.0643,-0.0205,0.0153,0.0556,0.0717,0.0752,0.0831,0.0838,0.0641,0.0594,0.0619,0.0606,0.073,0.073,0.073,0.0729,0.0729,-0.1137,-0.1196,-0.1255,-0.1329,-0.1377,-0.1406,-0.1409,-0.1343,-0.1261,-0.1055,-0.0869,-0.0541,-0.0208,0.038,0.0648,0.087,0.0869,0.0901,0.0893,0.0887,0.0839,0.08,0.0966,0.0967,0.0967,0.0968,0.0969,0,-0.1202,-0.1264,-0.1349,-0.1431,-0.1494,-0.1487,-0.147,-0.1416,-0.1288,-0.1055,-0.0809,-0.0425,-0.0001,0.0344,0.0713,0.0947,0.0892,0.0959,0.0833,0.0827,0.0822,0.0766,0.0877,0.0878,0.0878,0.0879,0,0,-0.1238,-0.1338,-0.1384,-0.1506,-0.1557,-0.1589,-0.1566,-0.1431,-0.1253,-0.101,-0.0753,-0.0404,0.0021,0.0267,0.0533,0.0722,0.0708,0.0721,0.0762,0.0571,0.0564,0.0749,0.0652,0,0,0,0,0]}],[{"header":{"parameterUnit":"m.s-1","parameterCategory":2,"la1":30.2991,"la2":30.254,"lo1":-89.0895,"lo2":-89.0444,"dy":0.0017,"dx":0.0017,"nx":28,"ny":28,"refTime":"2024-04-24T21:00:00:Z","depth":"4","parameterNumber":2,"parameterNumberName":"U-component_of_CURRENTS"},"data":[0,0,0,0,0,0,0,0,0,0,0,0,0,0,0,0,0,0,0,0,0,0,0,0,0,0,0,0,0,0,0,0,0,0,0,0,0,0,0,0,0,0,0,0,0,0,0,0,0,0,0,0,0,0,0,0,0,0,-0.2056,-0.2057,0,-0.2146,-0.2146,-0.2147,-0.221,-0.221,-0.2211,-0.2212,-0.2287,-0.2288,-0.2289,0,0,0,0,0,0,0,0,0,0,0,0,0,-0.1921,-0.1923,-0.2056,-0.2057,-0.2059,-0.2145,-0.2146,-0.2147,-0.2209,-0.221,-0.2211,-0.2212,-0.2286,-0.2288,-0.229,0,0,0,0,0,0,0,0,0,0,0,0,0,-0.1989,-0.1924,-0.2056,-0.2102,-0.2107,-0.2145,-0.2146,-0.2148,-0.2209,-0.221,-0.2211,-0.2212,-0.2286,-0.2288,-0.229,-0.2281,0,0,-0.2296,-0.2297,0,0,0,0,0,0,0,0,-0.1986,-0.1994,-0.2094,-0.2099,-0.2105,-0.217,-0.2127,-0.2192,-0.2209,-0.2168,-0.2212,-0.2213,-0.2247,-0.2252,-0.2264,-0.2285,-0.2288,-0.2296,-0.2297,-0.2298,-0.2299,0,0,0,0,0,0,0,-0.1981,-0.1991,-0.2089,-0.2095,-0.2102,-0.2112,-0.2123,-0.2139,-0.2198,-0.2171,-0.2177,-0.219,-0.225,-0.2261,-0.2266,-0.2289,-0.2296,-0.2298,-0.2299,-0.23,-0.2397,-0.2398,0,0,0,0,0,0,-0.1975,-0.1986,-0.2086,-0.2092,-0.2049,-0.2114,-0.2126,-0.2146,-0.2199,-0.2208,-0.2189,-0.2193,-0.2257,-0.2263,-0.2269,-0.2354,-0.2298,-0.23,-0.2301,-0.2395,-0.2397,-0.2399,0,0,0,0,0,0,-0.1972,-0.1983,-0.2083,-0.2042,-0.2056,-0.2116,-0.2137,-0.2147,-0.2196,-0.2213,-0.2222,-0.2233,-0.2258,-0.2266,-0.2318,-0.2354,-0.2301,-0.2303,-0.2394,-0.2396,-0.2398,-0.2465,0,0,0,0,0,0,-0.1967,-0.1981,-0.201,-0.2042,-0.2058,-0.2131,-0.2137,-0.2148,-0.2202,-0.2209,-0.2252,-0.2259,-0.226,-0.2315,-0.232,-0.2356,-0.2304,-0.2392,-0.2395,-0.2397,-0.2462,-0.247,-0.2476,0,0,0,0,0,-0.1962,-0.1992,-0.201,-0.2024,-0.209,-0.2133,-0.2143,-0.2185,-0.2203,-0.2232,-0.2264,-0.2259,-0.2335,-0.2318,-0.2324,-0.2361,-0.2391,-0.2394,-0.2397,-0.2458,-0.2468,-0.2476,0,0,0,0,0,0,-0.1949,-0.2002,-0.2023,-0.2069,-0.2111,-0.2145,-0.218,-0.2205,-0.2253,-0.2269,-0.2279,-0.2288,-0.2345,-0.2342,-0.2324,-0.2395,-0.2361,-0.2365,-0.2405,-0.2415,-0.2422,-0.2416,-0.2306,0,0,0,0,0,-0.1958,-0.1997,-0.2042,-0.2082,-0.2106,-0.2149,-0.2178,-0.2209,-0.2247,-0.2271,-0.2302,-0.2331,-0.2354,-0.2379,-0.2397,-0.2439,-0.2415,-0.2465,-0.2472,-0.2479,-0.2478,-0.2474,-0.2481,-0.2409,-0.2409,-0.2409,0,0,-0.1965,-0.1999,-0.2023,-0.2083,-0.2119,-0.2164,-0.217,-0.2226,-0.2271,-0.2269,-0.2347,-0.2361,-0.2371,-0.2419,-0.2444,-0.2428,-0.2487,-0.2483,-0.2488,-0.2483,-0.2478,-0.2485,-0.2491,-0.2411,-0.241,-0.241,0,0,-0.1985,-0.2029,-0.2066,-0.2106,-0.217,-0.2197,-0.2221,-0.2279,-0.2317,-0.2381,-0.2388,-0.2425,-0.2474,-0.2485,-0.2494,-0.2552,-0.2525,-0.2565,-0.2605,-0.2602,-0.2608,-0.2613,-0.2589,-0.2591,-0.2572,-0.2572,-0.2572,0,-0.1994,-0.2046,-0.2084,-0.2129,-0.217,-0.2216,-0.2265,-0.2307,-0.2377,-0.2408,-0.2419,-0.2488,-0.2501,-0.2543,-0.2567,-0.257,-0.2556,-0.2571,-0.2611,-0.2615,-0.2619,-0.2593,-0.2594,-0.2576,-0.2575,-0.2575,-0.2574,0,-0.2031,-0.209,-0.2116,-0.2189,-0.2236,-0.2287,-0.2345,-0.2402,-0.245,-0.2485,-0.2552,-0.2569,-0.2605,-0.2618,-0.2614,-0.2652,-0.263,-0.2619,-0.2586,-0.263,-0.26,-0.26,-0.2581,-0.2579,-0.2578,-0.2577,0,0,-0.2002,-0.212,-0.2133,-0.2182,-0.2274,-0.2312,-0.2393,-0.2466,-0.2517,-0.258,-0.2634,-0.2679,-0.2687,-0.2696,-0.2696,-0.2699,-0.2714,-0.2678,-0.2676,-0.265,-0.2697,-0.2524,-0.2507,-0.2715,-0.2715,-0.2716,-0.2665,0,-0.2023,-0.2112,-0.2171,-0.2264,-0.2312,-0.2386,-0.2453,-0.2527,-0.2586,-0.265,-0.2674,-0.2724,-0.2717,-0.2738,-0.2744,-0.2724,-0.2719,-0.2728,-0.2662,-0.2659,-0.2497,-0.2502,-0.2718,-0.2665,-0.2664,-0.2664,-0.2664,0,-0.2028,-0.2092,-0.2185,-0.2303,-0.2333,-0.2396,-0.2505,-0.2572,-0.2661,-0.2706,-0.2757,-0.2778,-0.2806,-0.2787,-0.2773,-0.2782,-0.2747,-0.2721,-0.2719,-0.253,-0.2485,-0.2612,-0.2664,-0.2664,-0.2664,-0.2664,-0.2664,0,-0.1966,-0.2098,-0.2174,-0.2216,-0.2354,-0.2412,-0.2484,-0.2586,-0.2642,-0.2737,-0.2775,-0.2819,-0.2832,-0.2814,-0.277,-0.2781,-0.2727,-0.2731,-0.2538,-0.2525,-0.2669,-0.2664,-0.2707,-0.2707,-0.2707,-0.2708,-0.2708,0,-0.1939,-0.2004,-0.2157,-0.2195,-0.2286,-0.2389,-0.2481,-0.256,-0.2659,-0.2701,-0.2792,-0.28,-0.2841,-0.2819,-0.2779,-0.2639,-0.2731,-0.253,-0.2496,-0.2698,-0.2698,-0.2668,-0.2664,-0.2706,-0.2706,-0.2706,-0.2707,0,-0.1849,-0.1957,-0.2048,-0.2204,-0.2258,-0.2316,-0.2467,-0.2515,-0.2631,-0.2683,-0.2713,-0.279,-0.2749,-0.2753,-0.2706,-0.2617,-0.2526,-0.2454,-0.2655,-0.2636,-0.2327,-0.2328,-0.2235,-0.2228,-0.2223,-0.2218,-0.2214,0,-0.1807,-0.185,-0.2025,-0.2076,-0.2151,-0.226,-0.2324,-0.2475,-0.2514,-0.2635,-0.2628,-0.2655,-0.2675,-0.2459,-0.2494,-0.2395,-0.2365,-0.2313,-0.2332,-0.23,-0.2278,-0.2287,-0.2295,-0.2205,-0.2203,-0.2202,-0.22,0,-0.1713,-0.1792,-0.1862,-0.1965,-0.2051,-0.2134,-0.2231,-0.2245,-0.2387,-0.2526,-0.2464,-0.2427,-0.2372,-0.232,-0.2254,-0.219,-0.2349,-0.2254,-0.2266,-0.2283,-0.2263,-0.2248,-0.2263,-0.2181,-0.2184,-0.2186,-0.2187,0,-0.1634,-0.1655,-0.1752,-0.182,-0.1924,-0.1949,-0.2035,-0.2064,-0.2124,-0.2268,-0.2231,-0.2258,-0.2334,-0.221,-0.2147,-0.2071,-0.2046,-0.1986,-0.2012,-0.2034,-0.1991,-0.1938,-0.1709,0,0,0,0,0,-0.1542,-0.1543,-0.1597,-0.1658,-0.1749,-0.1798,-0.1941,-0.2026,-0.217,-0.2067,-0.2144,-0.2081,-0.1992,-0.201,-0.1883,-0.2054,-0.2055,-0.1901,-0.2003,-0.2073,-0.2095,-0.2063,0,0,0,0,0,0,-0.1478,-0.1523,-0.1535,-0.1493,-0.1495,-0.157,-0.1646,-0.1755,-0.1714,-0.1867,-0.1821,-0.1941,-0.1878,-0.2006,-0.1827,-0.1833,-0.1854,-0.1938,-0.1932,-0.206,-0.208,-0.2098,-0.2073,0,0,0,0,0]},{"header":{"parameterUnit":"m.s-1","parameterCategory":2,"la1":30.2991,"la2":30.254,"lo1":-89.0895,"lo2":-89.0444,"dy":0.0017,"dx":0.0017,"nx":28,"ny":28,"refTime":"2024-04-24T21:00:00:Z","depth":"4","parameterNumber":3,"parameterNumberName":"V-component_of_CURRENTS"},"data":[0,0,0,0,0,0,0,0,0,0,0,0,0,0,0,0,0,0,0,0,0,0,0,0,0,0,0,0,0,0,0,0,0,0,0,0,0,0,0,0,0,0,0,0,0,0,0,0,0,0,0,0,0,0,0,0,0,0,-0.0284,-0.0283,0,-0.0211,-0.021,-0.0209,-0.016,-0.0159,-0.0159,-0.0159,-0.0049,-0.0047,-0.0044,0,0,0,0,0,0,0,0,0,0,0,0,0,-0.0326,-0.0326,-0.0284,-0.0283,-0.0283,-0.0211,-0.021,-0.0209,-0.016,-0.0159,-0.0159,-0.0159,-0.005,-0.0047,-0.0044,0,0,0,0,0,0,0,0,0,0,0,0,0,-0.0284,-0.0326,-0.0284,-0.0251,-0.0247,-0.0211,-0.021,-0.0209,-0.016,-0.0159,-0.0159,-0.0159,-0.0051,-0.0047,-0.0043,-0.0024,0,0,-0.0031,-0.0029,0,0,0,0,0,0,0,0,-0.0287,-0.0283,-0.0256,-0.0253,-0.0249,-0.0196,-0.0185,-0.0146,-0.016,-0.0191,-0.0159,-0.0159,-0.0096,-0.0089,-0.0073,-0.0019,-0.0014,-0.0031,-0.0028,-0.0026,-0.0025,0,0,0,0,0,0,0,-0.029,-0.0285,-0.0253,-0.0256,-0.0251,-0.0221,-0.0215,-0.0177,-0.0144,-0.0188,-0.0185,-0.018,-0.0094,-0.0078,-0.007,-0.0012,-0.0031,-0.0027,-0.0024,-0.0023,0.008,0.008,0,0,0,0,0,0,-0.0306,-0.0288,-0.0256,-0.0251,-0.027,-0.0221,-0.0214,-0.0212,-0.0145,-0.0136,-0.018,-0.0178,-0.0085,-0.0075,-0.0066,-0.003,-0.0026,-0.0022,-0.002,0.008,0.008,0.008,0,0,0,0,0,0,-0.0307,-0.0304,-0.0259,-0.0269,-0.0262,-0.0221,-0.0218,-0.021,-0.0196,-0.014,-0.0129,-0.0175,-0.0084,-0.0072,-0.0033,-0.0025,-0.0021,-0.0017,0.0079,0.008,0.008,0.0038,0,0,0,0,0,0,-0.0308,-0.0305,-0.0312,-0.0271,-0.0262,-0.0246,-0.0218,-0.0209,-0.0194,-0.019,-0.0132,-0.0121,-0.0083,-0.004,-0.0029,-0.002,-0.0014,0.0079,0.0079,0.008,0.0039,0.0037,0.0035,0,0,0,0,0,-0.031,-0.0322,-0.0313,-0.0309,-0.0272,-0.0246,-0.0239,-0.0207,-0.0195,-0.0192,-0.0149,-0.0123,-0.0029,-0.0036,-0.0024,-0.0013,0.0079,0.0079,0.008,0.004,0.0037,0.0035,0,0,0,0,0,0,-0.0342,-0.0317,-0.0306,-0.0309,-0.0284,-0.0239,-0.0237,-0.0213,-0.0178,-0.0175,-0.012,-0.0106,-0.0071,-0.0037,-0.0047,0.0018,0.0029,0.0032,-0.0005,-0.0007,-0.0009,-0.0022,-0.001,0,0,0,0,0,-0.0355,-0.0358,-0.0324,-0.0328,-0.0319,-0.028,-0.0267,-0.0245,-0.0207,-0.0192,-0.0149,-0.0102,-0.0058,-0.0031,0.0007,0.0044,0.0079,0.0059,0.0057,0.0055,0.0053,0.0119,0.0123,0.0082,0.0082,0.0082,0,0,-0.0369,-0.0356,-0.0357,-0.0335,-0.0314,-0.0304,-0.0271,-0.0257,-0.0241,-0.0185,-0.0155,-0.0113,-0.0053,-0.0013,0.0007,0.0018,0.0084,0.0056,0.0054,0.0053,0.012,0.0125,0.0128,0.0083,0.0082,0.0082,0,0,-0.0397,-0.0387,-0.0399,-0.0381,-0.0357,-0.0329,-0.0329,-0.0288,-0.0264,-0.0232,-0.0184,-0.0135,-0.0078,-0.0022,0.0012,0.0024,0.0064,0.003,0.002,0.0084,0.0088,0.0091,0.013,0.0137,0.0037,0.0037,0.0037,0,-0.0417,-0.0424,-0.0397,-0.0399,-0.0389,-0.0345,-0.0348,-0.0314,-0.0264,-0.0241,-0.0231,-0.0127,-0.0077,-0.0007,-0.0002,0.0021,0.0049,0.0023,0.0081,0.0086,0.009,0.0129,0.0138,0.0035,0.0035,0.0035,0.0036,0,-0.0445,-0.0452,-0.0457,-0.0445,-0.0429,-0.0426,-0.0379,-0.0358,-0.0327,-0.0286,-0.0226,-0.0152,-0.0088,-0.0061,-0.0027,0.0036,0.0041,0.0063,0.0084,0.0092,0.0132,0.0142,0.0032,0.0033,0.0034,0.0034,0,0,-0.0485,-0.0481,-0.0484,-0.0491,-0.0455,-0.0448,-0.0419,-0.0378,-0.0361,-0.0298,-0.0262,-0.017,-0.013,-0.0088,-0.003,0.0033,0.0092,0.0055,0.006,0.0088,0.0212,0.0186,0.0195,0.0121,0.0123,0.0124,0.0221,0,-0.0517,-0.0546,-0.0522,-0.0539,-0.0549,-0.0499,-0.0478,-0.0432,-0.0384,-0.0338,-0.0241,-0.019,-0.0138,-0.011,-0.0037,0.0059,0.0118,0.0062,0.0205,0.0209,0.0182,0.0207,0.013,0.0229,0.0231,0.0233,0.0234,0,-0.0548,-0.0568,-0.0599,-0.0597,-0.0595,-0.0593,-0.0557,-0.0531,-0.0445,-0.0405,-0.0325,-0.0254,-0.0144,-0.0112,0.0065,0.0023,0.0108,0.0183,0.0189,0.0188,0.0203,0.0225,0.0254,0.0252,0.0251,0.0249,0.0248,0,-0.0598,-0.0616,-0.0649,-0.0649,-0.0636,-0.0638,-0.0625,-0.0559,-0.0538,-0.045,-0.0423,-0.0284,-0.022,-0.0084,0.0075,0.0069,0.0256,0.0274,0.0333,0.0331,0.0342,0.0337,0.0391,0.0391,0.0391,0.039,0.039,0,-0.0636,-0.0664,-0.0686,-0.0704,-0.0743,-0.0705,-0.0719,-0.0679,-0.062,-0.0591,-0.0469,-0.041,-0.0211,-0.0076,0.0063,0.0227,0.0254,0.0333,0.0361,0.032,0.0312,0.0349,0.0343,0.0394,0.0393,0.0392,0.0392,0,-0.068,-0.0691,-0.074,-0.076,-0.0771,-0.0802,-0.0802,-0.0802,-0.0736,-0.0694,-0.0669,-0.0499,-0.0319,-0.0125,0.0103,0.0202,0.0367,0.0416,0.0342,0.0364,0.0398,0.0389,0.049,0.049,0.049,0.049,0.049,0,-0.0701,-0.0733,-0.0798,-0.0842,-0.086,-0.0899,-0.0919,-0.0872,-0.0857,-0.0741,-0.0716,-0.0543,-0.0413,-0.0106,0.009,0.0348,0.0381,0.0451,0.0441,0.0394,0.0412,0.0402,0.0393,0.049,0.049,0.049,0.049,0,-0.0746,-0.0776,-0.0819,-0.0917,-0.0968,-0.1011,-0.1028,-0.1022,-0.0944,-0.0893,-0.0736,-0.0557,-0.0358,-0.0111,0.0085,0.0271,0.0401,0.0453,0.0454,0.0444,0.0396,0.0411,0.0402,0.049,0.049,0.049,0.049,0,-0.078,-0.083,-0.09,-0.0976,-0.1053,-0.1092,-0.1094,-0.1046,-0.1011,-0.086,-0.0811,-0.0572,-0.0424,-0.0151,0.0035,0.021,0.0252,0.0297,0.0307,0.0309,0.0227,0.0137,0.018,0,0,0,0,0,-0.081,-0.0867,-0.095,-0.1034,-0.1111,-0.1145,-0.1147,-0.1125,-0.1048,-0.0946,-0.0868,-0.0671,-0.0364,-0.0221,-0.0049,0.0012,0.0257,0.0214,0.0307,0.0491,0.0491,0.0423,0,0,0,0,0,0,-0.0832,-0.0916,-0.0954,-0.1062,-0.1125,-0.1194,-0.1194,-0.1141,-0.1059,-0.0957,-0.0785,-0.0662,-0.0362,-0.047,-0.0059,-0.0003,0.0072,0.0371,0.0374,0.0492,0.0491,0.0491,0.0421,0,0,0,0,0]}]]